Other Surface Observations
Issued by NWS

Home | Current Version | Previous Version | Text Only | Print | Product List | Glossary On
Versions: 1 2 3 4 5 6 7 8 9 10 11 12 13 14 15 16 17 18 19 20 21 22 23 24 25 26 27 28 29 30 31 32 33 34 35 36 37 38 39 40 41 42 43 44 45 46 47 48 49 50
000
SXUS52 KTAE 280418
OSOTAE
OSOTAE
North Florida/South Alabama/Southwest Georgia Weather Roundup
National Weather Service Tallahassee Florida
1200 AM EDT MON JUL 28 2014

Note: "fair" indicates few or no clouds below 12,000 feet with no
significant weather and/or obstructions to visibility.

!FLZ017-115-028-034-025-280500
...North Florida...

CITY           SKY/WX    TMP DP  RH WIND       PRES   REMARKS
TALLAHASSEE      N/A    N/A N/A N/A MISG      30.03F
APALACHICOLA   CLEAR     79  77  94 W8        30.05S
PERRY          CLEAR     81  77  89 W5        30.05S
CROSS CITY       N/A     80  76  87 SW3       30.05S
HOMERVILLE     FAIR      82  79  89 SW6       30.00F HX  93
JACKSONVILLE   PTCLDY    82  75  79 SW12      30.00F
$$

!FLZ112-006-005-002-011-280500
...Florida Panhandle...

CITY           SKY/WX    TMP DP  RH WIND       PRES   REMARKS
MARIANNA       CLEAR     81  77  88 SW9       30.01F
BONIFAY        FAIR      79  76  90 S5        30.03F
PANAMA CITY NW FAIR      82  76  81 SW6       30.03S
TYNDALL AFB    CLEAR     83  77  81 W10       30.06S HX  92
TYND DRONE APT NOT AVBL
DE FUNIAK SPR  FAIR      77  75  93 SW5       30.04F
EGLIN AFB      PTCLDY    82  78  86 W7        30.04S HX  91
DESTIN         CLEAR     85  79  82 VRB5      30.04S HX  98
HURLBURT       CLEAR     83  74  74 SW3       30.03S HX  91
CRESTVIEW      CLEAR     82  76  81 SW9       30.05S
PENSACOLA      CLEAR     81  76  84 W9        30.04S
$$

!ALZ063-066-280500
...South Alabama...

CITY           SKY/WX    TMP DP  RH WIND       PRES   REMARKS
DOTHAN         PTCLDY    81  76  84 SW8       30.05F
OZARK CAIRNS   PTCLDY    80  77  91 SW6       30.01F
FT RUCKER HELI PTCLDY    81  76  84 SW5       30.00F
RUCKER HELI 3  FAIR      81  75  82 SW9       30.04F
RUCKER HELI 2  FAIR      79  76  90 SW5       30.01F
FLORALA APT    CLEAR     81  76  84 SW5       30.04F
ANDALUSIA      CLEAR     85  76  74 W3        30.02S HX  94
TROY           CLEAR     79  76  90 CALM      30.01F
EUFALA         FAIR      82  75  79 SW5       29.98F
MOBILE         PTCLDY    80  78  94 SW8       30.05S
$$

!GAZ120>161-280500
...Southwest and South Central Georgia...

CITY           SKY/WX    TMP DP  RH WIND       PRES   REMARKS
THOMASVILLE    FAIR      82  73  74 SW8       30.02F
BAINBRIDGE     CLEAR     84  79  84 SW6       30.02F HX  96
MOODY AFB      CLEAR     82  82  99 SW8       29.99F HX  97
VALDOSTA       CLEAR     83  76  79 VRB3      30.01F HX  91
MOULTRIE       CLEAR     81  77  89 SW9       30.02F
BLAKELY        CLEAR     82  77  83 SW6       30.01S HX  91
ALBANY         CLEAR     83  76  79 SW8       30.00F HX  91
TIFTON         FAIR      83  75  77 SW7       29.99F HX  90
FITZGERALD     FAIR      84  74  71 SW8       30.00F HX  90
CORDELE        FAIR      85  75  72 SW6       29.99S HX  94
AMERICUS       FAIR      81  73  78 CALM      30.00F
$$

!GMZ750-755-770-775-280500
...Coastal and Buoy Obs...

STATION/POSITION TIME  TEMP    WIND        PRES    VSBY  WAVE
                       AIR SEA DIR/SP/G                  HT/PER
                 (UTC) (F)     (DEG/KT/KT) (MB)    (MI)  (FT/S)
KEATON BEACH     0400   84     270/ 16/ 19 1017.6S
CEDAR KEY        0354   85     270/  8/ 12 1018.1F
C TOWER          0400   83     270/ 16/ 17 1018.0R
APALACHICOLA BUO 0400   85 87  250/ 12/ 16 1018.2R         2/ 4
PANAMA CITY BUOY 0333   84 85  250/ 10/ 12 1018.0S         2/ 4
MOBILE BUOY      0312   85 86  250/ 16/ 17 1018.4
ORANGE BCH AL BU 0400   85 84  240/ 14/ 16 1017.2R         3/ 4
$$



USA.gov is the U.S. government's official web portal to all federal, state and local government web resources and services.